User: anonymous   Login
Location: Unspecified
(0.0000°N, 0.0000°E)
Time: 00:27:10
(UTC+00:00)
Language:

CANX 3B (BRITE-ASRA) - Orbit

View from above orbital plane
View from above orbital plane
View from above satellite
View from above satellite

Ground track
Ground track

The orbit data is extracted from the following two-line orbital elements,

1 39091U 13009F   15056.08857928  .00000179  00000-0  78763-4 0  9991
2 39091 098.6097 255.0451 0009435 286.7669 073.2480 14.34835209104581
Epoch (UTC): 25 February 2015 02:07:33
Eccentricity: 0.0009435
inclination: 98.6097°
perigee height: 769 km
apogee height: 782 km
right ascension of ascending node: 255.0451°
argument of perigee: 286.7669°
revolutions per day: 14.34835209
mean anomaly at epoch: 73.2480°
orbit number at epoch: 10458

The dashed part of the orbit path shows where the satellite is in the earth's shadow,  

DLR